Weather History for Columbia Owens, SC

Change the Weather History Date:

Saturday, October 13, 2012

  Actual Average Record
Temperature  
Mean Temperature 65 °F 66 °F  
Max Temperature 75 °F 77 °F 85 °F (2010)
Min Temperature 54 °F 56 °F 42 °F (2000)
Degree Days  
Heating Degree Days 0 2  
Month to date heating degree days 28 17  
Since 1 July heating degree days 28 20  
Cooling Degree Days 0 3  
Month to date cooling degree days 69 62  
Year to date cooling degree days 2483 2209  
Growing Degree Days 14 (Base 50)    
Moisture  
Dew Point 50 °F    
Average Humidity 65    
Maximum Humidity 84    
Minimum Humidity 41    
Precipitation  
Precipitation 0.00 in 0.10 in 1.53 in (1999)
Month to date precipitation 0.94 1.50  
Year to date precipitation 37.77 37.39  
Sea Level Pressure  
Sea Level Pressure 30.35 in    
Wind  
Wind Speed 3 mph (NE)    
Max Wind Speed 9 mph    
Max Gust Speed 15 mph    
Visibility 10 miles    
Events      
T = Trace of Precipitation, MM = Missing Value Source: NWS Daily Summary

Daily Weather History Graph

Daily Weather History Graph

Search for Another Location

Airport:

Trip Planner

Search our weather history database for the weather conditions in past years. The results will help you decide how hot, cold, wet, or windy it might be!

Date:

Astronomy

Oct. 13, 2012 Rise Set
Actual Time 7:27 AM EDT 6:51 PM EDT
Civil Twilight 7:02 AM EDT 7:16 PM EDT
Nautical Twilight 6:33 AM EDT 7:45 PM EDT
Astronomical Twilight 6:04 AM EDT 8:14 PM EDT
Moon 5:20 AM EDT (10/13) 5:32 PM EDT (10/13)
Length of Visible Light 12h 14m
Length of Day
11h 23m
Waning Crescent, 5% of the Moon is Illuminated
Oct 13
Waning Crescent
Oct 15
New
Oct 21
First Quarter
Oct 29
Full
Nov 6
Last Quarter

Hourly Weather History & Observations

Time (EDT) Temp. Dew Point Humidity Pressure Visibility Wind Dir Wind Speed Gust Speed Precip Events Conditions
12:53 AM 62.1 °F 55.0 °F 78% 30.29 in 10.0 mi Calm Calm - N/A   Clear
1:53 AM 61.0 °F 55.0 °F 81% 30.29 in 10.0 mi Calm Calm - N/A   Scattered Clouds
2:53 AM 60.1 °F 53.1 °F 78% 30.30 in 10.0 mi Calm Calm - N/A   Clear
3:53 AM 57.9 °F 52.0 °F 81% 30.30 in 10.0 mi Calm Calm - N/A   Clear
4:53 AM 57.0 °F 51.1 °F 81% 30.32 in 10.0 mi Calm Calm - N/A   Clear
5:53 AM 55.9 °F 50.0 °F 80% 30.35 in 10.0 mi NE 3.5 mph - N/A   Clear
6:53 AM 55.0 °F 48.0 °F 77% 30.38 in 10.0 mi ENE 4.6 mph - N/A   Clear
7:53 AM 54.0 °F 48.0 °F 80% 30.39 in 10.0 mi Variable 5.8 mph - N/A   Clear
8:53 AM 55.9 °F 46.9 °F 72% 30.42 in 10.0 mi ENE 5.8 mph - N/A   Clear
9:53 AM 57.9 °F 46.9 °F 67% 30.43 in 10.0 mi Variable 4.6 mph - N/A   Clear
10:53 AM 62.1 °F 46.9 °F 58% 30.44 in 10.0 mi NNE 5.8 mph - N/A   Clear
11:53 AM 64.9 °F 46.9 °F 52% 30.44 in 10.0 mi Variable 4.6 mph - N/A   Clear
12:53 PM 68.0 °F 46.9 °F 47% 30.41 in 10.0 mi North 4.6 mph - N/A   Clear
2:53 PM 73.0 °F 48.0 °F 41% 30.35 in 10.0 mi Variable 5.8 mph - N/A   Clear
3:53 PM 73.9 °F 48.0 °F 40% 30.33 in 10.0 mi East 3.5 mph - N/A   Clear
4:53 PM 73.9 °F 48.0 °F 40% 30.32 in 10.0 mi ENE 5.8 mph - N/A   Clear
5:53 PM 73.0 °F 48.9 °F 42% 30.32 in 10.0 mi Variable 4.6 mph - N/A   Partly Cloudy
6:53 PM 66.9 °F 51.1 °F 57% 30.32 in 10.0 mi Calm Calm - N/A   Clear
8:53 PM 61.0 °F 52.0 °F 72% 30.33 in 10.0 mi Calm Calm - N/A   Clear
10:53 PM 59.0 °F 51.1 °F 75% 30.34 in 10.0 mi Calm Calm - N/A   Clear